Temperature
3 3 2 2 3 2 2 3 4 5 5 6 5 4 3 2 2 1 1 0 0 -0 -1 -0 -0 -0 -0 -0 -0 -0 -1 -0 -0 -0 -0 -0 -0 -0 0 0 0 0 0 0
2 2 2 2 2 3 2 3 3 4 4 5 4 3 2 2 1 1 0 -0 -0 -1 -1 -1 -0 -0 -1 -1 -1 -1 -1 -1 -1 -1 -1 -1 -1 -1 -1 -0 -0 -0 -0 -0
3 2 1 3 3 2 2 2 3 4 5 4 3 3 2 1 0 0 -0 -1 -1 -1 -1 -1 -1 -1 -1 -1 -1 -1 -1 -1 -1 -1 -1 -1 -1 -1 -1 -1 -1 -1 -1 -1
2 1 3 5 3 3 2 2 2 3 3 3 2 1 1 0 0 -0 -0 -1 -1 -1 -1 -1 -1 -1 -1 -1 -1 -1 -1 -2 -2 -2 -2 -2 -2 -2 -2 -2 -1 -1 -1 -1
1 2 4 4 2 2 1 2 2 2 2 2 0 0 1 0 -0 -0 -1 -1 -1 -1 -1 -1 -1 -1 -2 -2 -2 -2 -2 -2 -2 -2 -2 -2 -2 -2 -2 -2 -2 -2 -2 -2
1 2 3 4 2 0 1 2 2 1 1 1 0 2 2 -0 -1 -1 -1 -1 -1 -1 -1 -1 -2 -2 -2 -2 -2 -2 -2 -2 -2 -2 -3 -3 -3 -3 -3 -2 -2 -2 -2 -2
1 2 3 3 0 0 2 3 2 1 0 -0 -0 0 -0 -1 -1 -1 -1 -1 -2 -2 -2 -2 -2 -2 -2 -2 -2 -2 -2 -2 -3 -3 -3 -3 -3 -3 -3 -3 -3 -3 -3 -3
0 1 3 1 -0 1 2 1 0 0 -0 -1 -1 -1 -1 -1 -2 -2 -2 -2 -2 -2 -2 -2 -2 -2 -3 -3 -3 -3 -3 -3 -3 -3 -3 -3 -3 -3 -3 -3 -3 -4 -4 -3
1 3 2 0 1 1 0 0 -0 -0 -1 -1 -2 -2 -2 -2 -2 -2 -2 -2 -2 -2 -2 -2 -2 -3 -3 -3 -3 -3 -3 -3 -3 -3 -4 -4 -4 -4 -4 -4 -4 -4 -4 -4
-1 1 1 -0 -0 -0 -0 -0 -0 -1 -1 -1 -2 -2 -2 -2 -2 -2 -2 -2 -3 -3 -3 -3 -3 -3 -3 -3 -3 -3 -4 -4 -4 -4 -4 -4 -4 -4 -4 -4 -4 -4 -4 -4
-1 1 0 -0 -0 -0 -0 -1 -1 -1 -1 -2 -2 -2 -2 -3 -3 -3 -3 -3 -3 -3 -3 -3 -3 -3 -3 -4 -4 -4 -4 -4 -4 -4 -4 -4 -4 -4 -4 -4 -5 -5 -5 -5
2 2 0 1 0 -0 -1 -1 -1 -2 -2 -2 -2 -2 -3 -3 -3 -3 -3 -3 -3 -3 -3 -3 -3 -4 -4 -4 -4 -4 -4 -4 -4 -5 -5 -4 -4 -4 -4 -4 -4 -4 -5 -5
1 0 -0 -0 -0 -1 -1 -1 -1 -2 -2 -2 -2 -3 -3 -3 -3 -3 -3 -3 -4 -4 -4 -4 -4 -4 -4 -4 -4 -5 -5 -5 -5 -5 -5 -5 -5 -5 -5 -5 -4 -4 -4 -4
-0 -1 -1 -1 -1 -1 -2 -2 -2 -2 -2 -3 -3 -3 -3 -3 -3 -4 -4 -4 -4 -4 -4 -4 -4 -4 -4 -5 -5 -5 -5 -5 -5 -5 -5 -5 -5 -5 -5 -5 -5 -5 -4 -4
-1 -1 -2 -2 -2 -2 -2 -2 -3 -3 -3 -3 -3 -3 -3 -4 -4 -4 -4 -4 -4 -4 -4 -4 -4 -5 -5 -5 -5 -5 -5 -5 -5 -5 -5 -5 -5 -5 -5 -5 -5 -5 -5 -4
-1 -2 -2 -3 -3 -3 -3 -3 -3 -3 -3 -3 -3 -4 -4 -4 -4 -4 -4 -4 -4 -4 -4 -5 -5 -5 -5 -5 -5 -5 -5 -6 -5 -6 -6 -5 -5 -5 -5 -5 -5 -5 -5 -5
-2 -3 -3 -3 -3 -3 -3 -3 -3 -3 -3 -4 -4 -4 -4 -4 -4 -4 -5 -5 -5 -5 -5 -5 -5 -5 -5 -5 -5 -6 -6 -6 -6 -6 -6 -6 -6 -6 -6 -5 -5 -5 -5 -5
-2 -2 -2 -2 -3 -3 -3 -3 -3 -4 -4 -4 -4 -4 -4 -5 -5 -5 -5 -5 -5 -5 -5 -5 -5 -5 -6 -6 -6 -6 -6 -6 -6 -6 -6 -6 -6 -6 -6 -6 -5 -5 -5 -5
-2 -2 -3 -3 -3 -3 -3 -3 -4 -4 -4 -4 -4 -4 -5 -5 -5 -5 -5 -5 -5 -5 -5 -5 -6 -6 -6 -6 -6 -6 -6 -6 -6 -6 -6 -6 -6 -6 -6 -6 -5 -5 -5 -5
-2 -3 -3 -3 -3 -3 -4 -4 -4 -4 -4 -4 -5 -5 -5 -5 -5 -5 -5 -5 -5 -6 -6 -6 -6 -6 -6 -6 -6 -6 -6 -6 -6 -6 -6 -6 -6 -6 -6 -6 -6 -6 -6 -6
-3 -3 -3 -4 -4 -4 -4 -4 -4 -4 -4 -4 -5 -5 -5 -5 -5 -5 -6 -6 -6 -6 -6 -6 -6 -6 -6 -6 -6 -6 -6 -6 -6 -6 -6 -6 -6 -6 -6 -6 -6 -6 -6 -6
-3 -3 -3 -4 -4 -4 -4 -4 -4 -4 -5 -5 -5 -5 -5 -5 -6 -6 -6 -6 -6 -6 -6 -6 -6 -6 -6 -6 -6 -6 -6 -6 -6 -6 -6 -6 -6 -6 -6 -6 -6 -6 -6 -6
-3 -3 -4 -4 -4 -4 -4 -4 -4 -5 -5 -5 -5 -5 -5 -6 -6 -6 -6 -6 -6 -6 -6 -6 -6 -6 -6 -6 -6 -6 -6 -6 -6 -6 -6 -6 -6 -6 -6 -6 -6 -6 -6 -6
-3 -3 -4 -4 -4 -4 -4 -4 -5 -5 -5 -5 -5 -6 -6 -6 -6 -6 -6 -6 -6 -6 -6 -6 -6 -6 -6 -6 -6 -6 -6 -7 -7 -7 -7 -7 -6 -6 -6 -6 -6 -6 -6 -6
-3 -4 -4 -4 -4 -4 -4 -4 -5 -5 -5 -5 -6 -6 -6 -6 -6 -6 -6 -6 -7 -7 -7 -7 -7 -7 -7 -7 -7 -7 -7 -7 -7 -7 -7 -7 -7 -6 -6 -6 -7 -6 -6 -6
-4 -4 -4 -4 -4 -4 -4 -5 -5 -5 -5 -6 -6 -6 -6 -6 -7 -7 -7 -7 -7 -7 -7 -7 -7 -7 -7 -7 -7 -7 -7 -7 -7 -7 -7 -7 -7 -7 -7 -7 -7 -7 -6 -6
-4 -4 -4 -5 -5 -5 -5 -5 -5 -5 -6 -6 -6 -6 -7 -7 -7 -7 -7 -7 -7 -7 -7 -7 -7 -7 -7 -7 -7 -7 -7 -7 -7 -7 -7 -7 -7 -7 -7 -7 -7 -7 -7 -6
Wind_Speed
9 8 5 7 9 10 11 12 10 12 13 14 11 9 8 7 7 6 6 5 5 5 5 5 5 5 5 5 5 5 5 4 4 4 4 4 4 5 5 5 5 5 5 5
6 6 8 10 13 13 14 14 16 18 18 13 10 8 7 7 6 6 6 6 5 5 5 5 5 6 6 5 5 5 4 4 4 4 4 4 4 5 5 5 5 5 4 4
5 4 6 10 11 13 11 12 11 14 13 9 9 9 8 7 6 6 6 6 5 5 5 5 5 5 5 6 5 5 4 4 3 3 4 4 4 4 5 5 5 5 4 4
4 3 8 5 1 7 11 12 12 12 12 10 9 9 7 7 6 6 6 6 6 5 5 5 5 5 5 5 4 4 4 3 3 3 3 4 4 4 4 4 4 4 5 5
3 5 9 6 3 4 6 8 8 10 10 8 6 6 6 4 5 6 6 6 5 5 5 5 5 4 4 4 4 4 4 3 3 3 3 4 4 4 4 4 4 4 5 5
4 5 7 3 1 2 3 6 4 6 7 6 3 5 5 2 4 5 5 4 4 4 4 4 4 3 3 4 4 4 4 3 3 3 3 3 4 4 4 4 4 4 5 5
8 8 8 4 3 5 4 4 1 4 5 5 5 6 5 5 5 5 4 4 3 3 3 3 3 3 3 4 4 4 4 3 3 3 3 3 3 3 4 4 4 4 5 5
7 7 8 5 6 6 5 2 2 4 5 6 7 7 6 6 6 5 4 4 3 3 3 3 3 3 3 4 4 4 3 3 3 3 3 3 3 3 3 3 3 4 4 5
9 8 3 7 7 6 3 4 4 5 5 6 6 7 7 6 6 5 4 3 3 3 3 3 3 3 4 4 4 3 2 2 3 3 3 3 3 3 3 3 3 3 3 4
8 10 9 8 9 7 6 7 6 5 5 6 6 7 7 6 5 4 4 3 3 3 3 3 3 3 4 4 3 2 2 3 2 2 2 3 2 2 2 2 3 3 3 4
10 10 8 8 9 8 7 6 6 6 6 7 7 7 6 5 5 4 3 3 3 3 3 4 4 4 3 3 2 2 2 2 2 2 2 2 2 3 3 3 3 4 4 3
9 7 6 7 5 6 7 8 7 6 7 6 6 6 6 5 4 4 3 3 3 3 3 4 4 4 3 2 2 2 2 2 2 2 2 1 2 3 3 3 5 6 6 5
8 5 6 6 5 5 6 6 6 6 6 6 5 5 5 4 3 3 3 3 3 3 4 4 4 3 3 2 2 2 2 2 2 1 1 1 2 2 3 4 5 5 6 6
8 5 5 6 5 5 5 5 4 4 4 4 4 4 4 3 3 3 3 3 3 3 3 3 3 3 3 2 2 2 2 2 2 2 1 1 2 2 2 3 4 4 5 6
9 9 7 5 5 4 4 3 3 4 3 3 3 3 3 3 4 4 3 2 2 2 3 3 3 3 2 1 1 1 1 1 1 1 1 1 1 2 2 3 3 3 4 4
6 6 7 7 6 5 4 4 5 5 4 4 3 3 3 3 3 3 2 2 2 3 3 3 3 2 1 1 1 1 1 1 1 1 1 1 1 1 2 2 2 3 3 4
5 6 7 7 7 7 6 6 6 5 5 5 4 3 3 2 3 3 2 2 2 3 3 3 3 2 1 1 1 1 0 0 1 1 1 1 1 1 2 2 2 3 3 4
8 8 7 7 7 7 7 6 5 5 5 4 3 3 4 4 4 3 2 2 2 2 3 2 2 1 1 1 1 1 0 0 1 1 1 1 1 1 1 2 2 2 3 3
7 7 6 7 7 6 6 5 5 4 4 4 4 4 4 4 4 3 2 2 2 3 2 1 1 1 1 1 1 1 1 0 0 1 1 1 1 1 1 2 2 2 2 3
5 5 5 5 5 5 5 4 4 4 4 4 4 4 4 3 3 3 3 3 3 3 2 2 1 1 1 1 1 1 1 1 1 0 1 1 1 1 1 2 2 2 2 2
5 5 4 4 4 4 4 4 4 4 3 4 4 4 4 3 3 3 3 3 2 2 2 2 1 1 1 1 1 1 1 1 1 0 0 1 1 1 2 2 2 2 2 2
4 4 4 3 3 3 2 3 3 3 3 3 4 3 3 3 3 3 3 3 2 2 2 1 1 2 2 2 1 1 1 1 1 0 0 0 1 1 1 2 2 2 2 2
3 3 3 4 3 3 2 2 3 3 3 4 4 4 4 3 3 3 2 2 2 2 2 2 2 3 2 1 1 1 1 1 0 0 0 0 0 1 1 1 2 2 2 2
3 3 3 3 3 3 2 2 2 2 2 2 3 3 3 3 2 2 2 2 3 2 1 2 3 3 2 1 2 1 1 1 1 0 0 0 0 0 1 1 1 2 2 2
3 3 3 4 4 3 3 2 2 2 2 1 2 2 2 2 2 2 2 2 2 2 2 2 3 2 2 1 2 1 1 1 1 1 0 0 0 0 1 1 1 1 2 2
3 3 3 3 3 3 3 3 2 2 2 1 1 1 1 1 2 2 2 2 2 2 2 2 2 2 1 1 1 1 1 1 1 0 0 0 1 1 1 1 1 1 1 2
3 2 2 2 2 3 3 3 3 3 3 3 2 2 2 2 2 2 2 2 2 2 2 1 1 1 1 1 1 1 1 1 1 1 0 0 1 1 1 1 1 1 1 1
Wind_Direction
260 269 257 250 243 224 222 233 247 264 269 278 290 291 289 289 288 289 295 296 299 307 313 319 323 324 322 319 319 316 311 307 305 307 306 306 309 308 305 301 298 293 295 287
259 255 254 262 255 242 239 243 250 265 273 281 289 287 283 284 284 283 290 293 296 304 309 312 314 316 318 317 315 312 308 306 309 311 313 313 312 311 310 308 307 303 296 293
260 277 276 261 246 231 231 231 238 252 265 286 288 286 285 286 282 276 284 290 294 297 298 303 305 307 308 311 314 311 309 311 314 316 317 315 314 314 311 310 313 312 304 300
271 275 248 263 222 223 233 246 241 256 273 281 287 293 286 278 275 281 286 289 292 294 296 299 301 304 305 307 309 308 307 310 313 315 313 314 314 314 313 313 315 316 315 309
236 257 271 273 241 210 228 260 245 252 269 279 295 294 275 266 267 277 283 286 289 288 287 292 298 304 305 305 306 302 302 306 310 310 309 313 315 315 315 315 315 316 313 315
224 246 256 266 150 167 203 262 237 234 252 270 279 276 292 314 291 290 293 290 293 294 291 291 299 304 300 303 306 302 303 303 303 301 299 302 305 309 312 312 312 316 318 321
229 243 262 260 160 161 218 278 255 225 243 249 247 259 294 300 296 294 291 291 294 291 286 289 297 293 289 296 301 304 307 306 305 300 299 299 303 306 312 315 316 320 320 323
210 230 250 167 158 202 253 317 246 247 249 250 257 271 278 283 286 288 290 292 291 291 291 297 298 286 285 293 302 306 305 304 305 307 307 305 306 309 314 314 314 319 320 325
210 231 269 187 214 241 261 255 257 259 262 255 260 268 272 275 274 272 273 280 283 279 287 298 299 283 279 293 301 301 302 303 306 309 310 310 309 311 317 316 310 315 320 324
247 255 255 246 246 250 250 254 259 260 259 248 253 265 267 268 266 267 268 270 274 277 285 296 300 292 283 290 286 286 295 304 308 310 316 321 318 317 317 316 312 314 318 320
248 262 274 254 239 248 250 251 255 256 253 252 254 260 261 262 261 264 267 265 262 267 276 289 298 296 295 291 277 279 291 300 307 307 310 321 328 329 318 315 310 310 312 316
240 238 232 255 255 243 241 245 247 252 259 258 252 254 256 255 258 259 261 262 267 273 281 292 298 296 298 287 265 261 282 299 301 299 308 322 333 344 354 336 341 337 330 328
244 250 247 262 261 237 238 245 249 249 252 258 256 250 251 255 252 252 257 258 265 275 281 287 292 292 295 286 264 258 272 287 292 292 304 315 321 330 341 353 357 353 351 350
235 232 248 243 248 244 243 250 253 255 251 247 250 248 249 252 251 253 259 265 272 277 277 279 284 287 287 277 260 264 276 286 293 293 298 305 314 322 328 334 339 345 350 355
228 227 240 252 251 242 233 235 249 256 258 254 244 238 238 239 250 263 269 270 274 274 276 279 284 285 285 268 251 258 273 286 300 305 308 312 321 326 332 333 333 334 341 355
232 233 234 235 236 236 232 231 242 253 254 250 248 243 239 243 256 266 266 255 254 265 272 276 278 273 272 261 247 249 268 310 321 308 312 322 331 333 336 338 339 339 347 351
210 227 226 231 234 237 237 235 238 245 244 243 245 244 238 239 253 257 263 265 263 263 264 264 269 264 247 238 234 243 265 299 331 337 340 335 333 333 333 334 339 342 344 346
226 231 225 226 229 236 243 243 238 235 235 238 232 224 225 229 240 252 262 273 276 275 270 257 239 219 215 221 222 212 198 272 326 336 344 344 342 337 333 335 341 346 344 349
220 222 223 223 224 225 230 234 235 231 227 217 214 221 230 237 241 244 246 246 247 259 269 238 215 210 214 220 216 182 171 139 29 359 9 6 1 356 350 349 348 349 347 348
211 208 212 220 220 217 223 226 222 222 217 205 207 216 227 233 227 224 226 242 248 258 251 232 220 211 202 195 205 181 161 146 128 65 29 23 10 5 1 358 356 351 349 351
203 199 203 212 217 218 214 211 205 211 211 201 204 214 224 230 219 214 219 241 259 248 228 215 205 202 188 180 191 167 150 139 131 99 31 22 16 7 3 2 1 354 349 350
199 195 200 201 200 207 206 197 195 198 200 202 206 208 211 220 218 223 235 241 242 240 225 209 206 200 179 169 170 157 144 127 119 112 42 2 3 354 353 355 352 348 343 344
194 192 193 193 191 188 181 184 188 190 196 203 205 206 211 216 216 217 235 224 221 226 218 213 208 185 168 157 159 158 150 147 143 171 250 301 320 323 335 342 340 337 335 338
179 179 182 174 161 162 174 189 181 187 195 207 208 205 201 205 223 229 226 217 222 222 218 206 194 180 160 143 151 159 166 173 181 199 269 315 321 318 318 324 328 332 332 336
174 170 167 166 172 186 186 173 160 163 170 193 207 210 211 214 213 208 199 203 204 195 184 187 181 165 144 141 150 156 169 187 184 178 206 283 285 291 298 310 320 325 329 332
182 186 189 194 195 190 178 174 180 185 181 190 204 207 199 184 179 185 182 178 175 171 165 163 162 154 150 154 151 147 152 169 174 184 228 270 281 280 279 296 312 317 321 330
175 176 177 182 187 184 179 180 186 191 190 188 192 192 179 169 169 171 168 161 154 153 152 146 143 147 150 148 142 139 146 163 188 202 213 243 272 283 290 296 309 321 327 332
Height
1487 1485 1487 1485 1484 1485 1485 1478 1473 1462 1461 1458 1460 1462 1462 1461 1460 1459 1458 1457 1455 1453 1451 1449 1448 1446 1445 1443 1441 1439 1437 1436 1434 1433 1432 1430 1429 1428 1426 1425 1423 1422 1421 1420
1487 1485 1486 1483 1478 1478 1478 1475 1471 1466 1460 1457 1459 1460 1459 1459 1458 1456 1455 1454 1452 1451 1449 1447 1445 1444 1442 1440 1439 1437 1435 1433 1432 1430 1429 1427 1426 1424 1423 1421 1420 1419 1417 1416
1478 1483 1483 1471 1467 1469 1469 1467 1466 1460 1455 1456 1457 1457 1456 1456 1455 1454 1452 1451 1450 1448 1446 1445 1443 1441 1439 1438 1436 1434 1432 1430 1429 1427 1426 1424 1423 1421 1420 1418 1417 1415 1414 1413
1483 1483 1473 1458 1463 1463 1463 1461 1461 1458 1455 1455 1455 1454 1454 1453 1452 1451 1450 1448 1447 1445 1443 1442 1440 1439 1437 1435 1434 1432 1430 1428 1427 1425 1423 1422 1420 1419 1417 1416 1414 1413 1411 1410
1483 1474 1460 1457 1460 1462 1462 1456 1455 1455 1454 1454 1454 1452 1450 1450 1449 1448 1447 1446 1444 1442 1441 1439 1438 1436 1434 1433 1431 1429 1428 1426 1424 1423 1421 1419 1418 1416 1415 1414 1412 1411 1409 1407
1481 1472 1460 1451 1458 1459 1461 1454 1451 1452 1451 1452 1452 1450 1447 1447 1446 1445 1444 1443 1441 1439 1438 1436 1435 1434 1432 1430 1429 1427 1425 1423 1422 1420 1418 1417 1416 1414 1413 1411 1410 1408 1406 1405
1476 1469 1455 1453 1457 1460 1457 1447 1449 1449 1449 1449 1449 1448 1447 1445 1443 1443 1441 1440 1438 1437 1435 1434 1433 1431 1430 1428 1426 1425 1423 1421 1420 1418 1417 1415 1414 1412 1410 1409 1407 1406 1404 1403
1471 1467 1454 1452 1455 1454 1448 1447 1446 1446 1446 1446 1445 1444 1443 1442 1441 1440 1438 1437 1435 1434 1432 1431 1430 1429 1427 1426 1424 1423 1421 1419 1417 1416 1415 1413 1412 1410 1409 1407 1405 1404 1402 1401
1456 1449 1445 1446 1446 1445 1445 1445 1444 1444 1443 1443 1442 1441 1440 1439 1437 1436 1435 1434 1432 1431 1430 1429 1428 1426 1425 1423 1422 1420 1418 1417 1415 1414 1412 1411 1410 1408 1407 1405 1404 1402 1401 1399
1453 1444 1443 1443 1442 1442 1442 1441 1441 1441 1440 1439 1438 1437 1436 1435 1434 1433 1432 1431 1429 1428 1427 1426 1425 1424 1422 1421 1419 1418 1416 1415 1413 1411 1410 1409 1408 1406 1405 1403 1402 1401 1399 1398
1446 1440 1439 1437 1437 1437 1437 1437 1437 1437 1436 1435 1434 1433 1432 1431 1430 1429 1428 1428 1427 1426 1424 1423 1422 1421 1420 1418 1417 1415 1414 1413 1411 1410 1408 1407 1406 1405 1403 1402 1401 1400 1398 1397
1434 1432 1434 1432 1432 1433 1433 1433 1433 1432 1432 1431 1431 1430 1429 1428 1427 1427 1426 1425 1424 1423 1422 1421 1419 1418 1417 1416 1415 1413 1412 1411 1410 1408 1407 1406 1404 1403 1402 1401 1400 1398 1397 1396
1429 1429 1429 1429 1429 1429 1429 1429 1429 1429 1428 1427 1426 1426 1425 1425 1424 1424 1423 1422 1422 1421 1419 1418 1417 1416 1415 1414 1413 1412 1411 1409 1408 1407 1406 1405 1403 1402 1400 1400 1399 1397 1396 1394
1425 1426 1425 1425 1425 1425 1425 1425 1425 1425 1424 1424 1423 1423 1422 1422 1421 1421 1420 1420 1419 1418 1417 1416 1415 1414 1413 1412 1411 1410 1409 1408 1407 1406 1405 1404 1403 1401 1400 1398 1397 1396 1395 1394
1420 1421 1421 1421 1421 1421 1421 1421 1421 1421 1420 1420 1420 1420 1419 1419 1419 1418 1418 1417 1417 1416 1415 1414 1413 1412 1411 1410 1409 1408 1407 1406 1406 1405 1404 1403 1402 1401 1399 1398 1397 1396 1394 1393
1415 1416 1416 1416 1416 1417 1417 1417 1417 1417 1417 1417 1417 1417 1417 1417 1416 1416 1415 1415 1414 1413 1413 1412 1411 1410 1409 1408 1408 1407 1406 1405 1405 1404 1403 1402 1401 1400 1399 1398 1397 1395 1394 1392
1411 1411 1411 1411 1412 1412 1412 1413 1413 1413 1414 1414 1414 1414 1414 1413 1413 1413 1413 1412 1412 1411 1411 1410 1409 1409 1408 1407 1406 1406 1405 1404 1404 1403 1402 1401 1400 1399 1398 1397 1396 1395 1394 1393
1405 1406 1407 1407 1407 1408 1408 1409 1409 1410 1410 1410 1411 1411 1411 1411 1411 1410 1410 1410 1410 1409 1409 1408 1408 1407 1407 1406 1406 1405 1404 1404 1403 1402 1402 1401 1400 1399 1398 1397 1396 1395 1394 1394
1400 1401 1402 1403 1404 1404 1405 1405 1406 1406 1407 1407 1407 1408 1408 1408 1408 1408 1408 1408 1407 1407 1407 1407 1406 1406 1405 1405 1405 1404 1404 1403 1403 1402 1401 1401 1400 1399 1398 1397 1396 1396 1395 1394
1396 1397 1398 1399 1400 1401 1402 1402 1403 1403 1404 1404 1404 1405 1405 1405 1406 1406 1406 1405 1405 1405 1405 1405 1405 1404 1404 1404 1404 1403 1403 1403 1402 1402 1401 1401 1400 1399 1398 1398 1397 1396 1395 1394
1392 1393 1394 1395 1397 1398 1399 1399 1400 1400 1401 1401 1402 1402 1402 1403 1403 1403 1403 1403 1404 1404 1404 1403 1403 1403 1403 1403 1403 1403 1402 1402 1402 1401 1401 1400 1400 1399 1399 1398 1397 1396 1395 1395
1390 1391 1392 1393 1394 1395 1396 1397 1397 1398 1398 1399 1399 1399 1400 1400 1400 1400 1401 1401 1401 1402 1402 1402 1402 1402 1402 1402 1402 1402 1401 1401 1401 1401 1401 1400 1400 1399 1398 1398 1397 1397 1396 1395
1388 1389 1390 1391 1392 1393 1394 1394 1395 1395 1396 1396 1397 1397 1397 1398 1398 1398 1398 1399 1399 1399 1400 1400 1401 1401 1401 1401 1401 1401 1401 1400 1400 1400 1400 1400 1399 1399 1398 1398 1398 1397 1396 1396
1386 1387 1388 1389 1390 1391 1391 1392 1393 1394 1394 1394 1395 1395 1395 1395 1396 1396 1397 1397 1397 1397 1398 1398 1399 1400 1400 1400 1400 1400 1400 1400 1400 1400 1400 1399 1399 1399 1398 1398 1398 1397 1396 1396
1384 1385 1386 1387 1388 1389 1390 1390 1391 1392 1392 1392 1393 1393 1393 1394 1394 1394 1395 1395 1395 1396 1396 1397 1397 1398 1398 1399 1399 1399 1399 1399 1399 1399 1399 1399 1399 1398 1398 1398 1398 1397 1397 1396
1383 1383 1384 1385 1386 1387 1388 1389 1389 1390 1390 1390 1391 1391 1391 1392 1392 1392 1393 1393 1394 1394 1395 1395 1396 1396 1397 1397 1398 1398 1398 1398 1398 1398 1398 1398 1398 1398 1398 1398 1397 1397 1397 1397
1381 1382 1383 1384 1385 1386 1386 1387 1387 1388 1388 1388 1388 1389 1389 1390 1390 1391 1391 1392 1392 1393 1393 1394 1395 1395 1396 1396 1397 1397 1397 1397 1398 1398 1398 1398 1398 1398 1398 1397 1397 1397 1397 1397